ITY95R EDDF-LIRF

Flight info

Callsign ITY95R
Flight time 1h 28m
Altitude 39000
Route ANEKI2L/18 ANEKI Y163 NATOR N850 ODINA DCT KALIK DCT XIBIL
Aircraft A359/H-SDE2E3GHIJ3J4J5LM1ORWXY/LB1D1

Departure

Time 2026-05-07 13:08
Airport Frankfurt Main Airport (EDDF)

Arrival

Time 2026-05-07 14:36
Airport Rome–Fiumicino Leonardo da Vinci International Airport (LIRF)
Time Latitude Longitude Altitude Speed Heading
2026-05-07 12:35 50.04833 8.57622 362 ft 0 kts 202°
2026-05-07 12:53 50.04847 8.57631 369 ft 4 kts 202°
2026-05-07 12:53 50.04868 8.57645 368 ft 4 kts 187°
2026-05-07 12:53 50.04887 8.57643 368 ft 4 kts 146°
2026-05-07 12:53 50.04905 8.57617 366 ft 4 kts 123°
2026-05-07 12:54 50.04917 8.57584 366 ft 2 kts 113°
2026-05-07 12:54 50.04919 8.57577 365 ft 0 kts 113°
2026-05-07 12:58 50.04918 8.57580 366 ft 4 kts 113°
2026-05-07 12:58 50.04888 8.57690 370 ft 12 kts 112°
2026-05-07 12:58 50.04855 8.57814 366 ft 13 kts 112°
2026-05-07 12:58 50.04791 8.57909 368 ft 14 kts 156°
2026-05-07 12:59 50.04713 8.57894 366 ft 12 kts 232°
2026-05-07 12:59 50.04678 8.57774 367 ft 13 kts 249°
2026-05-07 12:59 50.04645 8.57639 368 ft 14 kts 249°
2026-05-07 12:59 50.04610 8.57494 368 ft 15 kts 249°
2026-05-07 13:00 50.04572 8.57335 367 ft 16 kts 250°
2026-05-07 13:00 50.04531 8.57167 367 ft 17 kts 249°
2026-05-07 13:00 50.04489 8.56989 367 ft 18 kts 250°
2026-05-07 13:00 50.04448 8.56815 371 ft 17 kts 250°
2026-05-07 13:01 50.04404 8.56627 368 ft 19 kts 250°
2026-05-07 13:01 50.04356 8.56426 365 ft 21 kts 249°
2026-05-07 13:01 50.04303 8.56204 366 ft 22 kts 249°
2026-05-07 13:01 50.04253 8.55999 366 ft 19 kts 249°
2026-05-07 13:02 50.04205 8.55795 361 ft 21 kts 250°
2026-05-07 13:02 50.04152 8.55576 366 ft 22 kts 249°
2026-05-07 13:02 50.04097 8.55348 363 ft 23 kts 250°
2026-05-07 13:02 50.04045 8.55128 361 ft 21 kts 249°
2026-05-07 13:03 50.04006 8.54965 364 ft 16 kts 249°
2026-05-07 13:03 50.03964 8.54791 366 ft 18 kts 249°
2026-05-07 13:03 50.03917 8.54592 358 ft 21 kts 250°
2026-05-07 13:03 50.03872 8.54400 361 ft 17 kts 247°
2026-05-07 13:04 50.03805 8.54237 361 ft 18 kts 244°
2026-05-07 13:04 50.03757 8.54044 359 ft 20 kts 250°
2026-05-07 13:04 50.03708 8.53835 357 ft 21 kts 250°
2026-05-07 13:04 50.03655 8.53614 353 ft 23 kts 248°
2026-05-07 13:05 50.03599 8.53399 357 ft 13 kts 250°
2026-05-07 13:05 50.03572 8.53282 356 ft 13 kts 250°
2026-05-07 13:05 50.03539 8.53143 350 ft 15 kts 248°
2026-05-07 13:05 50.03501 8.52986 352 ft 17 kts 249°
2026-05-07 13:06 50.03454 8.52812 350 ft 15 kts 245°
2026-05-07 13:06 50.03447 8.52785 351 ft 0 kts 248°
2026-05-07 13:06 50.03446 8.52779 351 ft 6 kts 248°
2026-05-07 13:06 50.03423 8.52686 347 ft 11 kts 249°
2026-05-07 13:07 50.03372 8.52601 351 ft 11 kts 200°
2026-05-07 13:07 50.03289 8.52594 349 ft 13 kts 179°
2026-05-07 13:07 50.03101 8.52597 342 ft 56 kts 180°
2026-05-07 13:07 50.02488 8.52602 344 ft 118 kts 179°
2026-05-07 13:08 50.01495 8.52612 356 ft 169 kts 180°
2026-05-07 13:08 50.00266 8.52662 843 ft 180 kts 180°
2026-05-07 13:08 49.98972 8.52721 1521 ft 190 kts 180°
2026-05-07 13:08 49.97645 8.52783 2330 ft 186 kts 179°
2026-05-07 13:09 49.96401 8.52858 3139 ft 182 kts 179°
2026-05-07 13:09 49.95076 8.52943 3447 ft 200 kts 179°
2026-05-07 13:09 49.93620 8.53039 3707 ft 218 kts 179°
2026-05-07 13:09 49.92055 8.53148 4091 ft 232 kts 179°
2026-05-07 13:10 49.90424 8.53266 4662 ft 237 kts 179°
2026-05-07 13:10 49.88795 8.53385 4984 ft 238 kts 179°
2026-05-07 13:10 49.87233 8.53497 5038 ft 238 kts 179°
2026-05-07 13:10 49.85570 8.53616 5032 ft 239 kts 179°
2026-05-07 13:11 49.83908 8.53736 5174 ft 241 kts 179°
2026-05-07 13:11 49.82224 8.53858 5708 ft 244 kts 179°
2026-05-07 13:11 49.80530 8.53980 6435 ft 243 kts 179°
2026-05-07 13:11 49.78835 8.54097 7087 ft 245 kts 179°
2026-05-07 13:12 49.77117 8.54030 7620 ft 252 kts 186°
2026-05-07 13:12 49.75303 8.53801 7900 ft 271 kts 187°
2026-05-07 13:12 49.73382 8.53533 8369 ft 280 kts 187°
2026-05-07 13:12 49.71432 8.53266 9015 ft 283 kts 187°
2026-05-07 13:13 49.69482 8.53003 9681 ft 286 kts 187°
2026-05-07 13:13 49.67482 8.52736 10272 ft 292 kts 187°
2026-05-07 13:13 49.65406 8.52459 10535 ft 308 kts 186°
2026-05-07 13:13 49.63217 8.52167 10774 ft 324 kts 186°
2026-05-07 13:14 49.60916 8.51862 11015 ft 338 kts 186°
2026-05-07 13:14 49.58522 8.51546 11257 ft 352 kts 186°
2026-05-07 13:14 49.56036 8.51219 11514 ft 364 kts 186°
2026-05-07 13:14 49.53492 8.50886 11931 ft 370 kts 186°
2026-05-07 13:15 49.50909 8.50549 12411 ft 374 kts 186°
2026-05-07 13:15 49.48330 8.50211 12858 ft 378 kts 186°
2026-05-07 13:15 49.45704 8.49867 13040 ft 379 kts 186°
2026-05-07 13:15 49.43065 8.49522 13350 ft 382 kts 186°
2026-05-07 13:16 49.40400 8.49174 13889 ft 384 kts 186°
2026-05-07 13:16 49.37729 8.48826 14360 ft 386 kts 186°
2026-05-07 13:16 49.35042 8.48476 14844 ft 387 kts 186°
2026-05-07 13:16 49.32350 8.48125 15317 ft 389 kts 186°
2026-05-07 13:17 49.29646 8.47768 15788 ft 391 kts 186°
2026-05-07 13:17 49.26960 8.47414 16236 ft 393 kts 186°
2026-05-07 13:17 49.24190 8.47053 16700 ft 396 kts 186°
2026-05-07 13:17 49.21472 8.46702 17145 ft 398 kts 186°
2026-05-07 13:18 49.18707 8.46344 17595 ft 400 kts 187°
2026-05-07 13:18 49.15931 8.45986 18043 ft 402 kts 187°
2026-05-07 13:18 49.13131 8.45625 18471 ft 404 kts 187°
2026-05-07 13:18 49.10327 8.45263 18853 ft 406 kts 187°
2026-05-07 13:19 49.07504 8.44861 19218 ft 407 kts 190°
2026-05-07 13:19 49.04705 8.44121 19587 ft 408 kts 193°
2026-05-07 13:19 49.01916 8.43247 19972 ft 410 kts 194°
2026-05-07 13:19 48.99127 8.42301 20340 ft 412 kts 195°
2026-05-07 13:20 48.96330 8.41318 20713 ft 413 kts 195°
2026-05-07 13:20 48.93520 8.40319 21077 ft 415 kts 195°
2026-05-07 13:20 48.90699 8.39319 21445 ft 417 kts 195°
2026-05-07 13:20 48.87895 8.38334 21802 ft 419 kts 195°
2026-05-07 13:21 48.85033 8.37335 22165 ft 421 kts 195°
2026-05-07 13:21 48.82165 8.36337 22518 ft 424 kts 195°
2026-05-07 13:21 48.79280 8.35338 22866 ft 426 kts 195°
2026-05-07 13:21 48.76386 8.34324 23215 ft 428 kts 195°
2026-05-07 13:22 48.73476 8.33270 23581 ft 430 kts 196°
2026-05-07 13:22 48.70564 8.32198 23856 ft 432 kts 196°
2026-05-07 13:22 48.67643 8.31119 24123 ft 434 kts 196°
2026-05-07 13:22 48.64705 8.30038 24425 ft 436 kts 195°
2026-05-07 13:23 48.61749 8.28955 24733 ft 437 kts 195°
2026-05-07 13:23 48.58784 8.27874 25042 ft 439 kts 195°
2026-05-07 13:23 48.55814 8.26795 25346 ft 441 kts 195°
2026-05-07 13:23 48.52818 8.25727 25643 ft 443 kts 194°
2026-05-07 13:24 48.49994 8.25079 25932 ft 446 kts 186°
2026-05-07 13:24 48.48493 8.24969 26081 ft 448 kts 182°
2026-05-07 13:24 48.45369 8.25261 26432 ft 451 kts 175°
2026-05-07 13:24 48.42252 8.25867 26753 ft 454 kts 173°
2026-05-07 13:25 48.39119 8.26608 27092 ft 456 kts 172°
2026-05-07 13:25 48.35982 8.27408 27450 ft 458 kts 172°
2026-05-07 13:25 48.32828 8.28224 27812 ft 460 kts 172°
2026-05-07 13:25 48.29661 8.29032 28150 ft 463 kts 172°
2026-05-07 13:26 48.26480 8.29828 28520 ft 465 kts 172°
2026-05-07 13:26 48.23280 8.30615 28881 ft 467 kts 172°
2026-05-07 13:26 48.20058 8.31395 29242 ft 469 kts 172°
2026-05-07 13:26 48.16824 8.32172 29595 ft 471 kts 172°
2026-05-07 13:27 48.13578 8.32952 29956 ft 473 kts 172°
2026-05-07 13:27 48.10312 8.33742 30255 ft 476 kts 172°
2026-05-07 13:27 48.07073 8.34528 30523 ft 478 kts 172°
2026-05-07 13:27 48.03769 8.35330 30781 ft 481 kts 172°
2026-05-07 13:28 48.00444 8.36136 31028 ft 484 kts 172°
2026-05-07 13:28 47.97121 8.36940 31271 ft 486 kts 172°
2026-05-07 13:28 47.93769 8.37750 31508 ft 489 kts 173°
2026-05-07 13:28 47.90410 8.38561 31748 ft 491 kts 173°
2026-05-07 13:29 47.87034 8.39374 32086 ft 490 kts 173°
2026-05-07 13:29 47.83663 8.40188 32423 ft 490 kts 173°
2026-05-07 13:29 47.80293 8.41000 32741 ft 490 kts 173°
2026-05-07 13:29 47.76924 8.41804 33048 ft 490 kts 173°
2026-05-07 13:30 47.73556 8.42605 33355 ft 491 kts 173°
2026-05-07 13:30 47.70637 8.43298 33628 ft 491 kts 173°
2026-05-07 13:30 47.67261 8.44088 33944 ft 490 kts 174°
2026-05-07 13:30 47.63878 8.44708 34229 ft 489 kts 177°
2026-05-07 13:31 47.60529 8.45178 34501 ft 488 kts 178°
2026-05-07 13:31 47.57142 8.45604 34785 ft 487 kts 178°
2026-05-07 13:31 47.54865 8.45888 34962 ft 487 kts 178°
2026-05-07 13:31 47.51642 8.46305 35225 ft 487 kts 178°
2026-05-07 13:32 47.48263 8.46763 35490 ft 487 kts 178°
2026-05-07 13:32 47.44892 8.47239 35729 ft 487 kts 177°
2026-05-07 13:32 47.41516 8.47727 35993 ft 486 kts 177°
2026-05-07 13:32 47.38141 8.48222 36257 ft 486 kts 177°
2026-05-07 13:33 47.34779 8.48716 36514 ft 486 kts 177°
2026-05-07 13:33 47.31413 8.49211 36737 ft 485 kts 177°
2026-05-07 13:33 47.28050 8.49703 36999 ft 485 kts 178°
2026-05-07 13:33 47.24692 8.50194 37247 ft 485 kts 177°
2026-05-07 13:34 47.21343 8.50688 37489 ft 484 kts 178°
2026-05-07 13:34 47.14662 8.51660 37967 ft 484 kts 178°
2026-05-07 13:34 47.11318 8.52145 38204 ft 483 kts 178°
2026-05-07 13:35 47.07971 8.52629 38445 ft 483 kts 178°
2026-05-07 13:35 47.04623 8.53113 38668 ft 482 kts 178°
2026-05-07 13:35 47.01285 8.53600 38829 ft 483 kts 178°
2026-05-07 13:35 46.97936 8.54086 38973 ft 483 kts 178°
2026-05-07 13:36 46.94584 8.54567 39012 ft 484 kts 178°
2026-05-07 13:36 46.87918 8.55523 39020 ft 485 kts 178°
2026-05-07 13:37 46.81202 8.56484 39020 ft 485 kts 178°
2026-05-07 13:37 46.74474 8.57447 39010 ft 485 kts 178°
2026-05-07 13:38 46.67768 8.58406 38999 ft 484 kts 178°
2026-05-07 13:38 46.62206 8.59194 38996 ft 483 kts 178°
2026-05-07 13:39 46.55504 8.60153 38982 ft 483 kts 178°
2026-05-07 13:39 46.48805 8.61103 38989 ft 483 kts 178°
2026-05-07 13:40 46.42110 8.62047 38985 ft 483 kts 178°
2026-05-07 13:40 46.35457 8.62985 38986 ft 482 kts 178°
2026-05-07 13:41 46.28769 8.63929 38988 ft 482 kts 178°
2026-05-07 13:41 46.22458 8.64811 38993 ft 482 kts 178°
2026-05-07 13:42 46.15784 8.65745 38992 ft 482 kts 179°
2026-05-07 13:42 46.09465 8.67605 38983 ft 490 kts 165°
2026-05-07 13:43 46.03213 8.71719 38995 ft 496 kts 157°
2026-05-07 13:43 45.97095 8.76313 38993 ft 497 kts 156°
2026-05-07 13:44 45.91014 8.80916 38991 ft 497 kts 156°
2026-05-07 13:44 45.84881 8.85491 38988 ft 497 kts 157°
2026-05-07 13:45 45.78732 8.90037 38985 ft 497 kts 157°
2026-05-07 13:45 45.72585 8.94561 38983 ft 497 kts 157°
2026-05-07 13:46 45.66427 8.99083 38984 ft 497 kts 157°
2026-05-07 13:46 45.60276 9.03591 38978 ft 497 kts 157°
2026-05-07 13:47 45.54315 9.07951 38961 ft 496 kts 157°
2026-05-07 13:47 45.48164 9.12438 38965 ft 496 kts 158°
2026-05-07 13:48 45.42057 9.16883 38962 ft 496 kts 158°
2026-05-07 13:48 45.35906 9.21347 38962 ft 495 kts 158°
2026-05-07 13:49 45.29775 9.25787 38970 ft 495 kts 158°
2026-05-07 13:49 45.23629 9.30226 38965 ft 494 kts 158°
2026-05-07 13:50 45.17536 9.34617 38966 ft 494 kts 158°
2026-05-07 13:50 45.11396 9.39029 38969 ft 494 kts 158°
2026-05-07 13:51 45.05267 9.43425 38970 ft 494 kts 158°
2026-05-07 13:51 44.99125 9.47818 38967 ft 494 kts 158°
2026-05-07 13:52 44.92984 9.52201 38968 ft 494 kts 158°
2026-05-07 13:52 44.86844 9.56573 38966 ft 495 kts 158°
2026-05-07 13:53 44.80693 9.60943 38970 ft 495 kts 158°
2026-05-07 13:53 44.74541 9.65300 38970 ft 495 kts 158°
2026-05-07 13:54 44.68381 9.69652 38972 ft 495 kts 158°
2026-05-07 13:54 44.62222 9.73996 38977 ft 496 kts 158°
2026-05-07 13:55 44.56097 9.78305 38987 ft 495 kts 158°
2026-05-07 13:55 44.49933 9.82629 38987 ft 495 kts 158°
2026-05-07 13:56 44.43779 9.86940 38989 ft 494 kts 158°
2026-05-07 13:56 44.37625 9.91245 38997 ft 494 kts 158°
2026-05-07 13:57 44.31483 9.95532 39004 ft 493 kts 159°
2026-05-07 13:57 44.25349 9.99804 39015 ft 493 kts 159°
2026-05-07 13:58 44.19207 10.04070 39015 ft 492 kts 159°
2026-05-07 13:58 44.13115 10.08293 39008 ft 491 kts 158°
2026-05-07 13:59 44.07007 10.12514 39017 ft 490 kts 159°
2026-05-07 13:59 44.00886 10.16737 39017 ft 490 kts 159°
2026-05-07 14:00 43.94773 10.20945 39009 ft 490 kts 159°
2026-05-07 14:00 43.88669 10.25138 39001 ft 490 kts 159°
2026-05-07 14:00 43.85619 10.27228 38806 ft 489 kts 159°
2026-05-07 14:01 43.82564 10.29321 38550 ft 488 kts 159°
2026-05-07 14:01 43.79521 10.31403 38279 ft 488 kts 159°
2026-05-07 14:01 43.76470 10.33487 38005 ft 489 kts 159°
2026-05-07 14:01 43.73424 10.35565 37711 ft 489 kts 160°
2026-05-07 14:02 43.70367 10.37648 37431 ft 489 kts 160°
2026-05-07 14:02 43.67314 10.39727 37169 ft 489 kts 160°
2026-05-07 14:02 43.64299 10.41777 36909 ft 489 kts 160°
2026-05-07 14:02 43.61240 10.43855 36640 ft 490 kts 160°
2026-05-07 14:03 43.58183 10.45929 36377 ft 490 kts 160°
2026-05-07 14:03 43.55119 10.48006 36117 ft 490 kts 160°
2026-05-07 14:03 43.52056 10.50079 35856 ft 490 kts 160°
2026-05-07 14:03 43.48996 10.52148 35602 ft 490 kts 160°
2026-05-07 14:04 43.45932 10.54217 35347 ft 491 kts 160°
2026-05-07 14:04 43.42860 10.56290 35098 ft 491 kts 161°
2026-05-07 14:04 43.39783 10.58363 34848 ft 491 kts 161°
2026-05-07 14:04 43.36747 10.60406 34605 ft 491 kts 161°
2026-05-07 14:05 43.33679 10.62469 34356 ft 491 kts 161°
2026-05-07 14:05 43.30610 10.64531 34111 ft 491 kts 161°
2026-05-07 14:05 43.27525 10.66600 33840 ft 492 kts 161°
2026-05-07 14:05 43.24444 10.68664 33582 ft 492 kts 161°
2026-05-07 14:06 43.21369 10.70722 32963 ft 490 kts 161°
2026-05-07 14:06 43.18308 10.72769 32217 ft 490 kts 161°
2026-05-07 14:06 43.15239 10.74818 31437 ft 491 kts 161°
2026-05-07 14:06 43.12194 10.76849 30646 ft 493 kts 161°
2026-05-07 14:07 43.09105 10.78905 29782 ft 495 kts 161°
2026-05-07 14:07 43.06053 10.80935 29000 ft 494 kts 161°
2026-05-07 14:07 43.02968 10.82988 28361 ft 490 kts 161°
2026-05-07 14:07 42.99909 10.85022 27738 ft 486 kts 161°
2026-05-07 14:08 42.96871 10.87038 27282 ft 479 kts 161°
2026-05-07 14:08 42.93916 10.89004 27146 ft 466 kts 161°
2026-05-07 14:08 42.91078 10.90889 27018 ft 453 kts 161°
2026-05-07 14:08 42.88288 10.92738 26850 ft 441 kts 161°
2026-05-07 14:09 42.85562 10.94539 26667 ft 430 kts 161°
2026-05-07 14:09 42.82899 10.96297 26483 ft 420 kts 161°
2026-05-07 14:09 42.80379 10.98293 26262 ft 422 kts 149°
2026-05-07 14:09 42.78306 11.01178 25842 ft 432 kts 131°
2026-05-07 14:10 42.76629 11.04642 25407 ft 433 kts 127°
2026-05-07 14:10 42.75066 11.08057 25034 ft 429 kts 127°
2026-05-07 14:10 42.73482 11.11486 24644 ft 426 kts 128°
2026-05-07 14:10 42.71901 11.14873 24267 ft 422 kts 128°
2026-05-07 14:11 42.70319 11.18238 23900 ft 419 kts 128°
2026-05-07 14:11 42.68751 11.21561 23514 ft 416 kts 128°
2026-05-07 14:11 42.67190 11.24857 23049 ft 413 kts 128°
2026-05-07 14:11 42.65642 11.28119 22594 ft 410 kts 128°
2026-05-07 14:12 42.64103 11.31359 22148 ft 407 kts 128°
2026-05-07 14:12 42.62575 11.34572 21722 ft 403 kts 128°
2026-05-07 14:12 42.61059 11.37753 21281 ft 400 kts 127°
2026-05-07 14:12 42.59552 11.40914 20876 ft 397 kts 127°
2026-05-07 14:13 42.58070 11.44025 20193 ft 387 kts 127°
2026-05-07 14:13 42.56633 11.47031 19405 ft 380 kts 127°
2026-05-07 14:13 42.55148 11.49887 18980 ft 360 kts 135°
2026-05-07 14:13 42.53311 11.51990 18618 ft 334 kts 155°
2026-05-07 14:14 42.51210 11.53238 18273 ft 330 kts 165°
2026-05-07 14:14 42.49093 11.54228 18090 ft 311 kts 166°
2026-05-07 14:14 42.47103 11.55152 17976 ft 298 kts 166°
2026-05-07 14:14 42.45109 11.56070 17712 ft 306 kts 166°
2026-05-07 14:15 42.43099 11.57002 17385 ft 304 kts 166°
2026-05-07 14:15 42.41113 11.57930 17079 ft 300 kts 166°
2026-05-07 14:15 42.39133 11.58856 16807 ft 305 kts 166°
2026-05-07 14:15 42.37076 11.59809 16695 ft 318 kts 165°
2026-05-07 14:16 42.34989 11.60781 16605 ft 313 kts 165°
2026-05-07 14:16 42.32996 11.61717 16465 ft 303 kts 165°
2026-05-07 14:16 42.31010 11.62646 16162 ft 300 kts 165°
2026-05-07 14:16 42.29042 11.63563 15851 ft 298 kts 165°
2026-05-07 14:17 42.27088 11.64472 15518 ft 296 kts 165°
2026-05-07 14:17 42.25148 11.65372 15175 ft 294 kts 166°
2026-05-07 14:17 42.23210 11.66215 14842 ft 291 kts 167°
2026-05-07 14:17 42.21279 11.67032 14510 ft 290 kts 167°
2026-05-07 14:18 42.19363 11.67846 14200 ft 288 kts 166°
2026-05-07 14:18 42.17456 11.68660 13898 ft 286 kts 166°
2026-05-07 14:18 42.15577 11.69466 13628 ft 281 kts 166°
2026-05-07 14:18 42.13722 11.70262 13367 ft 278 kts 166°
2026-05-07 14:19 42.11876 11.71053 13110 ft 278 kts 166°
2026-05-07 14:19 42.10038 11.71841 12869 ft 276 kts 166°
2026-05-07 14:19 42.08242 11.72648 12707 ft 269 kts 162°
2026-05-07 14:19 42.06677 11.74004 12490 ft 270 kts 136°
2026-05-07 14:20 42.05777 11.76180 12222 ft 275 kts 105°
2026-05-07 14:20 42.05799 11.78740 11948 ft 276 kts 77°
2026-05-07 14:20 42.06356 11.81223 11690 ft 277 kts 72°
2026-05-07 14:20 42.06981 11.83684 11449 ft 276 kts 71°
2026-05-07 14:21 42.07856 11.85969 11200 ft 274 kts 50°
2026-05-07 14:21 42.09358 11.87473 10962 ft 268 kts 18°
2026-05-07 14:21 42.11148 11.87768 10966 ft 263 kts 349°
2026-05-07 14:21 42.12919 11.87188 10961 ft 262 kts 339°
2026-05-07 14:22 42.14658 11.86417 10942 ft 263 kts 339°
2026-05-07 14:22 42.16397 11.85642 10939 ft 263 kts 339°
2026-05-07 14:22 42.18139 11.84883 10882 ft 263 kts 339°
2026-05-07 14:22 42.19881 11.84126 10655 ft 262 kts 339°
2026-05-07 14:23 42.21609 11.83379 10466 ft 261 kts 340°
2026-05-07 14:23 42.23336 11.82634 10267 ft 260 kts 340°
2026-05-07 14:23 42.25054 11.81900 10065 ft 260 kts 340°
2026-05-07 14:23 42.26779 11.81162 9859 ft 264 kts 340°
2026-05-07 14:24 42.28608 11.80379 9776 ft 283 kts 341°
2026-05-07 14:24 42.29903 11.80072 9702 ft 289 kts 357°
2026-05-07 14:24 42.32404 11.81143 9236 ft 291 kts 38°
2026-05-07 14:24 42.33589 11.83311 8902 ft 288 kts 70°
2026-05-07 14:25 42.34129 11.85908 8663 ft 288 kts 77°
2026-05-07 14:25 42.34607 11.88534 8422 ft 287 kts 76°
2026-05-07 14:25 42.34881 11.90276 8313 ft 286 kts 83°
2026-05-07 14:25 42.34644 11.92903 8123 ft 282 kts 114°
2026-05-07 14:26 42.33465 11.94942 7830 ft 275 kts 147°
2026-05-07 14:26 42.31726 11.95934 7604 ft 271 kts 166°
2026-05-07 14:26 42.29898 11.96574 7368 ft 272 kts 167°
2026-05-07 14:26 42.28063 11.97246 7136 ft 272 kts 165°
2026-05-07 14:27 42.26246 11.97958 6910 ft 271 kts 165°
2026-05-07 14:27 42.24444 11.98692 6691 ft 270 kts 164°
2026-05-07 14:27 42.22647 11.99436 6452 ft 270 kts 163°
2026-05-07 14:27 42.20856 12.00187 6219 ft 269 kts 163°
2026-05-07 14:28 42.19070 12.00944 5990 ft 269 kts 163°
2026-05-07 14:28 42.17292 12.01703 5785 ft 268 kts 163°
2026-05-07 14:28 42.15514 12.02460 5577 ft 267 kts 163°
2026-05-07 14:28 42.13763 12.03205 5368 ft 267 kts 163°
2026-05-07 14:29 42.12031 12.04085 5123 ft 266 kts 150°
2026-05-07 14:29 42.10629 12.05675 5021 ft 260 kts 133°
2026-05-07 14:29 42.09434 12.07441 4895 ft 250 kts 131°
2026-05-07 14:29 42.08566 12.08742 4719 ft 246 kts 132°
2026-05-07 14:30 42.07682 12.10059 4507 ft 244 kts 132°
2026-05-07 14:30 42.06545 12.11740 4265 ft 241 kts 132°
2026-05-07 14:30 42.05433 12.13379 4127 ft 233 kts 132°
2026-05-07 14:30 42.04363 12.14954 4033 ft 223 kts 132°
2026-05-07 14:31 42.03325 12.16472 3854 ft 218 kts 132°
2026-05-07 14:31 42.02310 12.17949 3688 ft 211 kts 133°
2026-05-07 14:31 42.01166 12.19133 3505 ft 207 kts 153°
2026-05-07 14:31 41.99810 12.19777 3249 ft 205 kts 164°
2026-05-07 14:32 41.98477 12.20309 3132 ft 194 kts 162°
2026-05-07 14:32 41.97232 12.20834 3061 ft 182 kts 161°
2026-05-07 14:32 41.96066 12.21333 2967 ft 170 kts 161°
2026-05-07 14:32 41.94974 12.21802 2848 ft 160 kts 161°
2026-05-07 14:33 41.93920 12.22250 2560 ft 164 kts 161°
2026-05-07 14:33 41.92812 12.22719 2236 ft 168 kts 162°
2026-05-07 14:33 41.91718 12.23176 2129 ft 159 kts 162°
2026-05-07 14:33 41.90709 12.23598 2134 ft 146 kts 162°
2026-05-07 14:34 41.89709 12.24015 1858 ft 157 kts 163°
2026-05-07 14:34 41.88660 12.24457 1293 ft 159 kts 163°
2026-05-07 14:34 41.87610 12.24916 886 ft 158 kts 163°
2026-05-07 14:34 41.86579 12.25358 598 ft 153 kts 168°
2026-05-07 14:35 41.85574 12.25766 323 ft 150 kts 167°
2026-05-07 14:35 41.84587 12.26166 105 ft 151 kts 167°
2026-05-07 14:35 41.83588 12.26566 26 ft 144 kts 163°
2026-05-07 14:35 41.82806 12.26899 20 ft 78 kts 162°
2026-05-07 14:36 41.82410 12.27064 16 ft 56 kts 162°
2026-05-07 14:36 41.82054 12.27215 17 ft 51 kts 163°
2026-05-07 14:36 41.81725 12.27355 20 ft 47 kts 162°
2026-05-07 14:36 41.81534 12.27424 20 ft 23 kts 177°
2026-05-07 14:37 41.81386 12.27365 18 ft 18 kts 226°
2026-05-07 14:37 41.81234 12.27234 18 ft 15 kts 163°
2026-05-07 14:37 41.81129 12.27279 18 ft 17 kts 163°
2026-05-07 14:38 41.81013 12.27326 19 ft 18 kts 163°
2026-05-07 14:38 41.80891 12.27347 19 ft 17 kts 187°
2026-05-07 14:38 41.80770 12.27319 19 ft 18 kts 190°
2026-05-07 14:38 41.80668 12.27248 19 ft 17 kts 233°
2026-05-07 14:39 41.80620 12.27097 19 ft 18 kts 249°
2026-05-07 14:39 41.80578 12.26940 19 ft 19 kts 250°
2026-05-07 14:39 41.80540 12.26800 20 ft 19 kts 250°
2026-05-07 14:40 41.80539 12.26796 20 ft 19 kts 250°
2026-05-07 14:40 41.80496 12.26642 21 ft 16 kts 248°
2026-05-07 14:40 41.80454 12.26502 22 ft 16 kts 249°
2026-05-07 14:40 41.80417 12.26357 21 ft 15 kts 250°
2026-05-07 14:41 41.80381 12.26223 21 ft 16 kts 249°
2026-05-07 14:41 41.80341 12.26077 20 ft 18 kts 250°
2026-05-07 14:41 41.80297 12.25917 20 ft 19 kts 250°
2026-05-07 14:41 41.80250 12.25747 20 ft 20 kts 250°
2026-05-07 14:42 41.80217 12.25629 20 ft 11 kts 249°
2026-05-07 14:42 41.80185 12.25517 20 ft 15 kts 250°
2026-05-07 14:42 41.80148 12.25381 20 ft 17 kts 250°
2026-05-07 14:42 41.80107 12.25229 20 ft 18 kts 253°
2026-05-07 14:43 41.80101 12.25063 20 ft 18 kts 281°
2026-05-07 14:43 41.80109 12.24907 20 ft 14 kts 263°
2026-05-07 14:43 41.80084 12.24805 20 ft 11 kts 230°
2026-05-07 14:43 41.80020 12.24796 20 ft 9 kts 186°
2026-05-07 14:44 41.79983 12.24736 20 ft 9 kts 250°
2026-05-07 14:44 41.79961 12.24657 20 ft 6 kts 250°
2026-05-07 14:44 41.79929 12.24621 20 ft 6 kts 199°
2026-05-07 14:44 41.79887 12.24634 20 ft 7 kts 159°
2026-05-07 14:45 41.79867 12.24644 20 ft 0 kts 160°
2026-05-07 14:45 41.79864 12.24646 20 ft 1 kts 159°
2026-05-07 14:45 41.79854 12.24651 20 ft 0 kts 159°